Valentine, NE

6:10 AM CDT on June 27, 2017 (GMT -0500)
Miller Field

Weather History for KVTN - March, 2013

Change the Weather History Date:

Monday, March 4, 2013

  Actual Average Record
Temperature  
Mean Temperature 33 °F 32 °F  
Max Temperature 45 °F 45 °F 76 °F (2009)
Min Temperature 20 °F 19 °F -27 °F (1960)
Degree Days  
Heating Degree Days 32 33  
Month to date heating degree days 106 133  
Since 1 July heating degree days 5059 5369  
Cooling Degree Days 0 0  
Month to date cooling degree days 0 0  
Year to date cooling degree days 0 0  
Moisture  
Dew Point 20 °F    
Average Humidity 66    
Maximum Humidity 100    
Minimum Humidity 31    
Precipitation  
Precipitation T in 0.03 in 2.24 in (1933)
Month to date precipitation 0.01 0.10  
Year to date precipitation 1.24 0.84  
Snow  
Snow T in 0.20 in 15.70 in (1933)
Month to date snowfall 0.3 0.9  
Since 1 July snowfall 27.9 23.0  
Snow Depth 0.00 in    
Sea Level Pressure  
Sea Level Pressure 29.87 in    
Wind  
Wind Speed 20 mph (NW)    
Max Wind Speed 38 mph    
Max Gust Speed 51 mph    
Visibility 9 miles    
Events Snow    
T = Trace of Precipitation, MM = Missing Value Source: NWS Daily Summary

Daily Weather History Graph

Daily Weather History Graph

Search for Another Location

Airport or City:

Trip Planner

Search our weather history database for the weather conditions in past years. The results will help you decide how hot, cold, wet, or windy it might be!

Date:

Astronomy

Mar. 04, 2013 Rise Set
Actual Time 7:12 AM CST 6:35 PM CST
Civil Twilight 6:44 AM CST 7:04 PM CST
Nautical Twilight 6:11 AM CST 7:36 PM CST
Astronomical Twilight 5:38 AM CST 8:09 PM CST
Moon 1:30 AM CST (3/4) 11:12 AM CST (3/4)
Length of Visible Light 12h 19m
Length of Day
11h 23m
Waning Gibbous, 52% of the Moon is Illuminated
Mar 4
Waning Gibbous
Mar 4
Last Quarter
Mar 11
New
Mar 19
First Quarter
Mar 27
Full

Hourly Weather History & Observations

Time (CST) Temp. Windchill Dew Point Humidity Pressure Visibility Wind Dir Wind Speed Gust Speed Precip Events Conditions
12:12 AM 33.8 °F 29.6 °F 33.8 °F 100% 29.51 in 1.8 mi SSW 4.6 mph - N/A   Mostly Cloudy
12:20 AM 33.8 °F 28.6 °F 32.0 °F 93% 29.51 in 2.0 mi SSW 5.8 mph - N/A   Mostly Cloudy
12:49 AM 33.8 °F 28.6 °F 32.0 °F 93% 29.52 in 4.0 mi West 5.8 mph - N/A   Clear
12:52 AM 34.0 °F 28.0 °F 32.0 °F 92% 29.54 in 4.0 mi West 6.9 mph - N/A   Clear
1:37 AM 39.2 °F 28.0 °F 33.8 °F 81% 29.57 in 10.0 mi NW 26.5 mph 40.3 mph N/A   Mostly Cloudy
1:52 AM 37.0 °F 24.9 °F 33.1 °F 86% 29.60 in 10.0 mi NW 27.6 mph 33.4 mph N/A   Overcast
2:52 AM 37.0 °F 24.5 °F 32.0 °F 82% 29.63 in 10.0 mi NW 29.9 mph 44.9 mph N/A   Overcast
3:50 AM 35.6 °F 23.4 °F 30.2 °F 81% 29.67 in 10.0 mi NNW 25.3 mph 35.7 mph N/A   Overcast
3:52 AM 36.0 °F 23.2 °F 30.0 °F 79% 29.69 in 10.0 mi NNW 28.8 mph 38.0 mph N/A   Overcast
4:52 AM 36.0 °F 25.6 °F 28.9 °F 76% 29.73 in 10.0 mi NW 18.4 mph 28.8 mph N/A   Overcast
5:25 AM 33.8 °F 25.3 °F 28.4 °F 81% 29.73 in 10.0 mi NW 11.5 mph 19.6 mph N/A   Scattered Clouds
5:52 AM 33.1 °F 23.4 °F 27.0 °F 78% 29.76 in 10.0 mi NW 13.8 mph 21.9 mph N/A   Clear
6:52 AM 32.0 °F 21.2 °F 26.1 °F 79% 29.80 in 10.0 mi NW 16.1 mph 23.0 mph N/A   Clear
7:52 AM 32.0 °F 21.6 °F 24.1 °F 73% 29.83 in 10.0 mi NW 15.0 mph 20.7 mph N/A   Clear
8:52 AM 36.0 °F 26.7 °F 24.1 °F 62% 29.85 in 10.0 mi NW 15.0 mph 21.9 mph N/A   Clear
9:52 AM 37.9 °F 27.9 °F 21.9 °F 53% 29.86 in 10.0 mi NNW 19.6 mph 26.5 mph N/A   Clear
10:52 AM 39.0 °F 31.0 °F 21.0 °F 49% 29.87 in 10.0 mi NNW 13.8 mph - N/A   Clear
11:52 AM 41.0 °F 32.8 °F 19.9 °F 43% 29.86 in 10.0 mi NW 16.1 mph 24.2 mph N/A   Clear
12:52 PM 42.1 °F 34.2 °F 17.1 °F 37% 29.84 in 10.0 mi NNW 16.1 mph 26.5 mph N/A   Clear
1:52 PM 44.1 °F 37.4 °F 16.0 °F 32% 29.82 in 10.0 mi NW 13.8 mph 27.6 mph N/A   Partly Cloudy
2:52 PM 41.0 °F 32.2 °F 15.1 °F 35% 29.84 in 10.0 mi NNW 18.4 mph 23.0 mph N/A   Mostly Cloudy
3:52 PM 34.0 °F 22.7 °F 10.9 °F 38% 29.93 in 10.0 mi NW 19.6 mph 35.7 mph N/A   Overcast
4:52 PM 32.0 °F 16.2 °F 8.1 °F 37% 29.99 in 10.0 mi NW 38.0 mph 46.0 mph N/A   Overcast
5:52 PM 28.0 °F 12.3 °F 8.1 °F 43% 30.06 in 10.0 mi NW 29.9 mph 41.4 mph N/A   Mostly Cloudy
6:52 PM 25.0 °F 9.2 °F 10.0 °F 53% 30.12 in 10.0 mi WNW 25.3 mph 39.1 mph N/A   Scattered Clouds
7:52 PM 24.1 °F 7.4 °F 10.9 °F 57% 30.15 in 10.0 mi WNW 27.6 mph 39.1 mph 0.00 in   Overcast
8:26 PM 21.2 °F 4.9 °F 15.8 °F 80% 30.07 in 2.5 mi WNW 23.0 mph 33.4 mph 0.00 in Snow Light Snow
8:40 PM 21.2 °F 6.0 °F 14.0 °F 74% 30.08 in 7.0 mi NW 19.6 mph 35.7 mph 0.00 in Snow Light Snow
8:52 PM 21.9 °F 5.8 °F 12.9 °F 68% 30.17 in 5.0 mi WNW 23.0 mph 42.6 mph 0.00 in Snow Light Snow
9:01 PM 21.2 °F 5.6 °F 10.4 °F 63% 30.09 in 9.0 mi NW 20.7 mph 38.0 mph 0.00 in   Overcast
9:52 PM 21.0 °F 4.3 °F 12.0 °F 68% 30.17 in 8.0 mi NW 24.2 mph 35.7 mph 0.00 in Snow Light Snow
10:52 PM 19.9 °F 1.5 °F 10.0 °F 65% 30.18 in 10.0 mi NW 28.8 mph 41.4 mph 0.00 in   Mostly Cloudy
11:02 PM 19.4 °F 1.1 °F 10.4 °F 68% 30.10 in 10.0 mi NW 27.6 mph 36.8 mph N/A   Scattered Clouds
11:52 PM 19.9 °F 0.7 °F 10.9 °F 68% 30.17 in 10.0 mi NW 32.2 mph 41.4 mph N/A   Mostly Cloudy